Location: Unspecified
(0.0000°N, 0.0000°E)
Time: 11:30:59
(UTC+00:00)

Transit 2A Rocket - Pass Details

Date: 27 November 2019
Orbit: 594 x 909 km, 66.7° (Epoch: 07 December)

Event Time Altitude Azimuth Distance (km) Brightness Sun altitude
Rises 16:41:46 0° 165° (SSE) 3,367 8.4 15.3°
Reaches altitude 10° 16:45:58 10° 135° (SE) 2,353 7.4 14.3°
Maximum altitude 16:48:00 12° 113° (ESE) 2,166 7.0 13.9°
Drops below altitude 10° 16:49:58 10° 90° (E) 2,268 6.9 13.4°
Sets 16:53:49 0° 60° (ENE) 3,104 7.5 12.5°
